N9XTN-3 Weather Reports


time (UTC)temp
C
wind
direction
speed
KPH
gust
KPH
rain 1hr
cm
rain 24hr
cm
rain mn
cm
humidity
%
barometer
mb
20260507110016 5 158 3.2 6.4 0.00 0.00 0.00 82 1012.1
20260507105516 5 158 4.8 8.0 0.00 0.00 0.00 83 1012.1
20260507105016 5 158 4.8 9.7 0.00 0.00 0.00 83 1012.2
20260507104517 5 158 6.4 8.0 0.00 0.00 0.00 83 1012.1
20260507104016 5 158 4.8 9.7 0.00 0.00 0.00 83 1012.1
20260507103516 5 158 3.2 8.0 0.00 0.00 0.00 83 1012.1
20260507103016 5 158 3.2 8.0 0.00 0.00 0.00 82 1012.0
20260507102537 5 158 4.8 9.7 0.00 0.00 0.00 82 1012.0
20260507102016 5 158 4.8 9.7 0.00 0.00 0.00 82 1012.1
20260507101517 6 180 4.8 8.0 0.00 0.00 0.00 82 1012.2
20260507101016 6 180 6.4 9.7 0.00 0.00 0.00 82 1012.3
20260507100516 6 180 6.4 9.7 0.00 0.00 0.00 81 1012.3
20260507100016 6 180 4.8 9.7 0.00 0.00 0.00 81 1012.4
20260507095516 6 158 8.0 11.3 0.00 0.00 0.00 81 1012.3
20260507095017 6 180 8.0 12.9 0.00 0.00 0.00 81 1012.3
20260507094516 6 158 8.0 12.9 0.00 0.00 0.00 81 1012.2
20260507094016 6 158 8.0 9.7 0.00 0.00 0.00 81 1012.3
20260507093516 6 158 8.0 12.9 0.00 0.00 0.00 81 1012.3
20260507093017 6 158 8.0 9.7 0.00 0.00 0.00 80 1012.3
20260507092517 6 158 8.0 11.3 0.00 0.00 0.00 79 1012.4
20260507092016 6 158 9.7 14.5 0.00 0.00 0.00 79 1012.4
20260507091516 6 158 9.7 12.9 0.00 0.00 0.00 80 1012.4
20260507091016 6 158 8.0 12.9 0.00 0.00 0.00 79 1012.5
20260507090557 6 158 8.0 14.5 0.00 0.00 0.00 79 1012.5
20260507090036 6 158 8.0 11.3 0.00 0.00 0.00 78 1012.6
20260507085517 6 158 8.0 11.3 0.00 0.00 0.00 77 1012.7
20260507085016 6 158 8.0 9.7 0.00 0.00 0.00 76 1012.8
20260507084517 6 158 6.4 9.7 0.00 0.00 0.00 76 1012.8
20260507084016 6 158 6.4 9.7 0.00 0.00 0.00 75 1012.9
20260507083517 6 203 3.2 8.0 0.00 0.00 0.00 74 1013.0
20260507083017 7 203 3.2 4.8 0.00 0.00 0.00 73 1013.2
20260507082517 7 203 3.2 9.7 0.00 0.00 0.00 73 1013.1
20260507082017 7 203 3.2 6.4 0.00 0.00 0.00 72 1013.2
20260507081516 7 180 4.8 9.7 0.00 0.00 0.00 72 1013.4
20260507081016 7 203 4.8 9.7 0.00 0.00 0.00 71 1013.4
20260507080516 7 203 4.8 8.0 0.00 0.00 0.00 71 1013.4
20260507080016 7 203 4.8 8.0 0.00 0.00 0.00 70 1013.5
20260507075516 7 203 4.8 8.0 0.00 0.00 0.00 69 1013.4
20260507075016 7 203 6.4 9.7 0.00 0.00 0.00 69 1013.5
20260507074557 7 203 4.8 8.0 0.00 0.00 0.00 68 1013.5
20260507074016 7 180 3.2 8.0 0.00 0.00 0.00 68 1013.6
20260507073517 7 180 4.8 8.0 0.00 0.00 0.00 68 1013.7
20260507073016 7 180 4.8 6.4 0.00 0.00 0.00 67 1013.7
20260507072517 7 203 4.8 9.7 0.00 0.00 0.00 67 1013.8
20260507072037 7 203 4.8 8.0 0.00 0.00 0.00 66 1013.9
20260507071516 7 203 4.8 8.0 0.00 0.00 0.00 65 1013.9
20260507071016 7 203 6.4 9.7 0.00 0.00 0.00 64 1014.1
20260507070517 7 203 4.8 11.3 0.00 0.00 0.00 63 1014.1
20260507070016 7 203 4.8 8.0 0.00 0.00 0.00 63 1014.1
20260507065517 7 203 4.8 8.0 0.00 0.00 0.00 62 1014.0
20260507065016 7 203 6.4 9.7 0.00 0.00 0.00 62 1014.1
20260507064516 7 203 4.8 11.3 0.00 0.00 0.00 63 1014.2
20260507064016 7 203 3.2 6.4 0.00 0.00 0.00 62 1014.3
20260507063516 7 203 3.2 8.0 0.00 0.00 0.00 61 1014.3
20260507063016 7 203 1.6 4.8 0.00 0.00 0.00 60 1014.3
20260507062537 7 203 1.6 4.8 0.00 0.00 0.00 59 1014.4
20260507062016 7 203 3.2 6.4 0.00 0.00 0.00 59 1014.4
20260507061517 8 180 3.2 6.4 0.00 0.00 0.00 57 1014.4
20260507061016 8 180 3.2 6.4 0.00 0.00 0.00 57 1014.6
20260507060516 8 180 4.8 8.0 0.00 0.00 0.00 56 1014.6
20260507060017 8 180 4.8 8.0 0.00 0.00 0.00 55 1014.7
20260507055517 7 180 4.8 8.0 0.00 0.00 0.00 55 1014.6
20260507055016 7 135 3.2 8.0 0.00 0.00 0.00 57 1014.6
20260507054516 8 135 1.6 8.0 0.00 0.00 0.00 58 1014.6
20260507054016 8 135 1.6 3.2 0.00 0.00 0.00 59 1014.7
20260507053537 8 135 1.6 6.4 0.00 0.00 0.00 60 1014.6
20260507053016 8 135 1.6 6.4 0.00 0.00 0.00 63 1014.7
20260507052517 8 135 1.6 6.4 0.00 0.00 0.00 67 1014.8
20260507052016 8 135 1.6 6.4 0.00 0.00 0.00 69 1014.9
20260507051517 8 135 3.2 6.4 0.00 0.00 0.00 66 1014.9
20260507051016 8 135 1.6 6.4 0.00 0.00 0.00 63 1014.8
20260507050536 8 135 3.2 6.4 0.00 0.00 0.00 63 1014.7
20260507050017 8 135 3.2 6.4 0.00 0.00 0.00 64 1014.7
20260507045516 8 135 4.8 8.0 0.00 0.00 0.00 67 1014.7
20260507045017 8 135 1.6 6.4 0.00 0.00 0.00 70 1014.8
20260507044517 8 135 1.6 3.2 0.00 0.00 0.00 67 1014.7
20260507044037 8 135 1.6 3.2 0.00 0.00 0.00 64 1014.7
20260507043557 8 135 1.6 6.4 0.00 0.00 0.00 66 1014.8
20260507043016 8 135 4.8 8.0 0.00 0.00 0.00 67 1014.9
20260507042516 7 135 3.2 8.0 0.00 0.00 0.00 66 1014.9
20260507042017 7 135 3.2 6.4 0.00 0.00 0.00 63 1014.9
20260507041516 7 135 3.2 8.0 0.00 0.00 0.00 62 1014.8
20260507041017 7 135 1.6 6.4 0.00 0.00 0.00 62 1014.8
20260507040519 7 0.0 0.0 0.00 0.00 0.00 62 1014.9
20260507040017 7 0.0 0.0 0.00 0.00 0.00 62 1014.9
20260507035516 7 0.0 0.0 0.00 0.00 0.00 62 1014.9
20260507035038 7 0.0 0.0 0.00 0.00 0.00 61 1015.0
20260507034516 7 0.0 0.0 0.00 0.00 0.00 61 1015.0
20260507034017 7 0.0 0.0 0.00 0.00 0.00 60 1015.0
20260507033516 7 0.0 0.0 0.00 0.00 0.00 56 1015.1
20260507033017 8 0.0 0.0 0.00 0.00 0.00 51 1015.1
20260507032517 8 0.0 0.0 0.00 0.00 0.00 50 1015.2
20260507032017 8 0.0 3.2 0.00 0.00 0.00 49 1015.2
20260507031516 8 135 1.6 6.4 0.00 0.00 0.00 48 1015.3
20260507031016 8 135 3.2 6.4 0.00 0.00 0.00 49 1015.2
20260507030536 8 135 1.6 8.0 0.00 0.00 0.00 50 1015.2
20260507030037 8 0.0 1.6 0.00 0.00 0.00 43 1015.2
20260507025516 9 0.0 0.0 0.00 0.00 0.00 44 1015.2
20260507025016 9 0.0 0.0 0.00 0.00 0.00 46 1015.2
20260507024517 9 68 1.6 1.6 0.00 0.00 0.00 46 1015.2
20260507024016 9 68 1.6 3.2 0.00 0.00 0.00 45 1015.2
20260507023657 9 0.0 0.0 0.00 0.00 0.00 42 1015.2
20260507023017 10 68 1.6 1.6 0.00 0.00 0.00 41 1015.1
20260507022517 10 68 1.6 3.2 0.00 0.00 0.00 42 1015.0
20260507022036 10 0.0 0.0 0.00 0.00 0.00 41 1015.0
20260507021517 10 68 3.2 6.4 0.00 0.00 0.00 42 1015.0
20260507021037 10 68 3.2 8.0 0.00 0.00 0.00 42 1014.9
20260507020517 10 0.0 0.0 0.00 0.00 0.00 39 1014.8
20260507020037 10 0.0 0.0 0.00 0.00 0.00 39 1014.8
20260507015516 11 0.0 0.0 0.00 0.00 0.00 39 1014.7
20260507015037 11 0.0 0.0 0.00 0.00 0.00 38 1014.8
20260507014516 11 0.0 0.0 0.00 0.00 0.00 38 1014.8
20260507014016 11 0.0 0.0 0.00 0.00 0.00 38 1014.8
20260507013537 11 0.0 0.0 0.00 0.00 0.00 38 1014.8
20260507013017 11 0.0 0.0 0.00 0.00 0.00 38 1014.8
20260507012517 12 0.0 0.0 0.00 0.00 0.00 37 1014.8
20260507012016 12 0.0 0.0 0.00 0.00 0.00 35 1014.8
20260507011517 13 0.0 0.0 0.00 0.00 0.00 36 1014.8
20260507011016 13 0.0 0.0 0.00 0.00 0.00 34 1014.9
20260507010516 13 0.0 1.6 0.00 0.00 0.00 32 1014.9
20260507010037 14 315 1.6 6.4 0.00 0.00 0.00 30 1015.0
20260507005516 14 293 1.6 4.8 0.00 0.00 0.00 29 1014.8
20260507005016 15 293 3.2 6.4 0.00 0.00 0.00 29 1014.8
20260507004517 15 293 4.8 6.4 0.00 0.00 0.00 28 1014.9
20260507004017 15 315 4.8 8.0 0.00 0.00 0.00 27 1014.9
20260507003536 15 315 8.0 12.9 0.00 0.00 0.00 26 1014.9
20260507003017 15 293 8.0 14.5 0.00 0.00 0.00 26 1014.9
20260507002516 15 293 4.8 8.0 0.00 0.00 0.00 27 1014.9
20260507002017 15 293 8.0 12.9 0.00 0.00 0.00 26 1015.0
20260507001517 15 293 6.4 17.7 0.00 0.00 0.00 26 1015.0
20260507001017 15 270 9.7 14.5 0.00 0.00 0.00 27 1015.0
20260507000517 15 293 8.0 14.5 0.00 0.00 0.00 27 1015.1
20260507000017 15 338 11.3 16.1 0.00 0.00 0.00 26 1015.1
20260506235517 15 315 8.0 14.5 0.00 0.00 0.00 26 1015.2
20260506235016 15 315 8.0 19.3 0.00 0.00 0.00 26 1015.2
20260506234517 15 293 8.0 19.3 0.00 0.00 0.00 26 1015.2
20260506234017 15 293 8.0 12.9 0.00 0.00 0.00 27 1015.3
20260506233516 15 293 8.0 14.5 0.00 0.00 0.00 26 1015.3
20260506233017 15 270 8.0 14.5 0.00 0.00 0.00 26 1015.3
20260506232517 15 338 9.7 22.5 0.00 0.00 0.00 26 1015.2
20260506232057 15 293 11.3 22.5 0.00 0.00 0.00 26 1015.2
20260506231537 15 338 11.3 20.9 0.00 0.00 0.00 26 1015.3
20260506231017 15 293 8.0 19.3 0.00 0.00 0.00 27 1015.3
20260506230517 15 338 9.7 17.7 0.00 0.00 0.00 26 1015.4
20260506230057 15 293 8.0 14.5 0.00 0.00 0.00 27 1015.4
20260506225517 15 270 9.7 19.3 0.00 0.00 0.00 26 1015.6
20260506225016 15 293 6.4 12.9 0.00 0.00 0.00 27 1015.5
20260506224516 15 270 9.7 20.9 0.00 0.00 0.00 27 1015.6
20260506224016 16 248 4.8 9.7 0.00 0.00 0.00 31 1015.6
20260506223537 16 0 8.0 16.1 0.00 0.00 0.00 25 1015.6
20260506223017 16 338 9.7 16.1 0.00 0.00 0.00 26 1015.8
20260506222537 16 338 11.3 17.7 0.00 0.00 0.00 26 1015.9
20260506222019 15 338 14.5 29.0 0.00 0.00 0.00 26 1015.9
20260506221517 16 338 14.5 25.7 0.00 0.00 0.00 25 1015.9
20260506221017 16 270 11.3 24.1 0.00 0.00 0.00 25 1016.0
20260506220517 16 270 11.3 17.7 0.00 0.00 0.00 26 1016.1
20260506220017 16 270 11.3 22.5 0.00 0.00 0.00 26 1016.1
20260506215517 16 270 12.9 29.0 0.00 0.00 0.00 25 1016.2
20260506215017 16 315 9.7 22.5 0.00 0.00 0.00 27 1016.2
20260506214517 16 293 9.7 22.5 0.00 0.00 0.00 27 1016.3
20260506214037 16 293 12.9 20.9 0.00 0.00 0.00 26 1016.3
20260506213517 15 270 6.4 16.1 0.00 0.00 0.00 29 1016.3
20260506213017 15 270 6.4 12.9 0.00 0.00 0.00 29 1016.4
20260506212516 15 315 11.3 25.7 0.00 0.00 0.00 27 1016.5
20260506212037 15 293 14.5 30.6 0.00 0.00 0.00 27 1016.5
20260506211517 15 293 8.0 14.5 0.00 0.00 0.00 27 1016.5
20260506211017 15 293 8.0 16.1 0.00 0.00 0.00 28 1016.7
20260506210517 15 293 9.7 22.5 0.00 0.00 0.00 27 1016.8
20260506210017 15 293 11.3 22.5 0.00 0.00 0.00 28 1016.9
20260506205516 15 0 9.7 20.9 0.00 0.00 0.00 27 1016.9
20260506205017 15 293 12.9 27.4 0.00 0.00 0.00 28 1017.2
20260506204537 15 338 9.7 17.7 0.00 0.00 0.00 26 1017.1
20260506204017 15 315 11.3 20.9 0.00 0.00 0.00 27 1017.2
20260506203517 15 315 12.9 24.1 0.00 0.00 0.00 26 1017.3
20260506203017 16 293 11.3 22.5 0.00 0.00 0.00 27 1017.3
20260506202517 16 270 9.7 17.7 0.00 0.00 0.00 28 1017.4
20260506202017 15 338 12.9 22.5 0.00 0.00 0.00 28 1017.4
20260506201517 15 338 11.3 22.5 0.00 0.00 0.00 30 1017.4
20260506201017 15 315 8.0 16.1 0.00 0.00 0.00 28 1017.4
20260506200517 15 315 9.7 20.9 0.00 0.00 0.00 29 1017.5
20260506200017 15 338 11.3 20.9 0.00 0.00 0.00 28 1017.6
20260506195517 15 270 8.0 22.5 0.00 0.00 0.00 32 1017.5
20260506195017 14 270 11.3 24.1 0.00 0.00 0.00 30 1017.6
20260506194517 14 293 11.3 22.5 0.00 0.00 0.00 30 1017.6
20260506194017 15 293 12.9 25.7 0.00 0.00 0.00 28 1017.7
20260506193517 14 338 14.5 27.4 0.00 0.00 0.00 29 1017.5
20260506193017 14 270 9.7 22.5 0.00 0.00 0.00 30 1017.6
20260506192517 14 338 16.1 27.4 0.00 0.00 0.00 29 1017.8
20260506192037 14 270 11.3 20.9 0.00 0.00 0.00 30 1017.6
20260506191517 15 293 14.5 27.4 0.00 0.00 0.00 30 1017.8
20260506191017 14 338 16.1 33.8 0.00 0.00 0.00 30 1017.8
20260506190517 14 293 11.3 22.5 0.00 0.00 0.00 30 1017.7
20260506190018 14 248 11.3 20.9 0.00 0.00 0.00 32 1017.9
20260506185517 14 293 11.3 20.9 0.00 0.00 0.00 30 1018.0
20260506185017 14 248 9.7 20.9 0.00 0.00 0.00 32 1018.1
20260506184517 13 270 14.5 27.4 0.00 0.00 0.00 32 1018.1
20260506184017 13 270 12.9 22.5 0.00 0.00 0.00 33 1018.1
20260506183517 13 338 12.9 24.1 0.00 0.00 0.00 32 1018.2
20260506183017 13 270 11.3 24.1 0.00 0.00 0.00 31 1018.2
20260506182517 13 293 11.3 20.9 0.00 0.00 0.00 33 1018.3
20260506182017 13 293 12.9 30.6 0.00 0.00 0.00 32 1018.4
20260506181517 13 270 16.1 25.7 0.00 0.00 0.00 32 1018.4
20260506181037 13 270 14.5 27.4 0.00 0.00 0.00 31 1018.4
20260506180517 13 293 11.3 24.1 0.00 0.00 0.00 33 1018.5
20260506180017 13 248 9.7 17.7 0.00 0.00 0.00 34 1018.5
20260506175519 13 270 11.3 19.3 0.00 0.00 0.00 32 1018.7
20260506175020 13 293 11.3 27.4 0.00 0.00 0.00 34 1018.7
20260506174539 13 270 12.9 22.5 0.00 0.00 0.00 32 1018.8
20260506174037 13 293 11.3 25.7 0.00 0.00 0.00 34 1018.8
20260506173517 13 270 12.9 29.0 0.00 0.00 0.00 33 1018.8
20260506173017 13 0 12.9 20.9 0.00 0.00 0.00 31 1018.9
20260506172517 13 338 12.9 29.0 0.00 0.00 0.00 32 1018.9
20260506172017 12 270 9.7 24.1 0.00 0.00 0.00 35 1018.9
20260506171517 12 338 17.7 37.0 0.00 0.00 0.00 32 1018.9
20260506171037 12 293 11.3 22.5 0.00 0.00 0.00 33 1019.1
20260506170517 12 293 11.3 19.3 0.00 0.00 0.00 32 1019.1
20260506170017 12 293 9.7 25.7 0.00 0.00 0.00 35 1019.0
20260506165517 12 293 9.7 20.9 0.00 0.00 0.00 36 1019.1
20260506165017 12 338 14.5 30.6 0.00 0.00 0.00 35 1019.1
20260506164517 12 338 11.3 27.4 0.00 0.00 0.00 33 1019.1
20260506164017 12 0 14.5 27.4 0.00 0.00 0.00 34 1019.2
20260506163517 12 315 11.3 22.5 0.00 0.00 0.00 36 1019.2
20260506163017 12 270 9.7 16.1 0.00 0.00 0.00 37 1019.2
20260506162517 12 270 8.0 17.7 0.00 0.00 0.00 39 1019.2
20260506162017 12 293 9.7 17.7 0.00 0.00 0.00 36 1019.2
20260506161517 11 270 8.0 17.7 0.00 0.00 0.00 38 1019.3
20260506161037 11 23 6.4 16.1 0.00 0.00 0.00 38 1019.3
20260506160517 11 0 8.0 14.5 0.00 0.00 0.00 37 1019.2
20260506160017 11 293 11.3 19.3 0.00 0.00 0.00 38 1019.2
20260506155517 11 248 9.7 22.5 0.00 0.00 0.00 41 1019.1
20260506155017 11 270 9.7 19.3 0.00 0.00 0.00 42 1019.1
20260506154517 11 248 6.4 14.5 0.00 0.00 0.00 41 1019.1
20260506154017 11 270 11.3 19.3 0.00 0.00 0.00 42 1019.2
20260506153517 11 270 9.7 17.7 0.00 0.00 0.00 41 1019.2
20260506153017 11 293 8.0 16.1 0.00 0.00 0.00 41 1019.2
20260506152517 10 270 9.7 24.1 0.00 0.00 0.00 39 1019.3
20260506152017 10 338 8.0 16.1 0.00 0.00 0.00 41 1019.3
20260506151517 10 338 9.7 16.1 0.00 0.00 0.00 40 1019.3
20260506151017 10 338 11.3 20.9 0.00 0.00 0.00 40 1019.3
20260506150517 10 293 8.0 14.5 0.00 0.00 0.00 41 1019.3
20260506150017 10 0 8.0 14.5 0.00 0.00 0.00 41 1019.3
20260506145517 10 270 4.8 11.3 0.00 0.00 0.00 42 1019.3
20260506145037 10 338 8.0 14.5 0.00 0.00 0.00 42 1019.3
20260506144517 10 0 4.8 12.9 0.00 0.00 0.00 43 1019.3
20260506144017 10 293 4.8 11.3 0.00 0.00 0.00 45 1019.4
20260506143517 10 0 3.2 8.0 0.00 0.00 0.00 44 1019.4
20260506143017 10 315 3.2 12.9 0.00 0.00 0.00 45 1019.4
20260506142517 9 293 3.2 6.4 0.00 0.00 0.00 48 1019.3
20260506142017 9 338 4.8 9.7 0.00 0.00 0.00 47 1019.3
20260506141517 8 338 3.2 6.4 0.00 0.00 0.00 49 1019.2
20260506141017 8 0 4.8 8.0 0.00 0.00 0.00 49 1019.1
20260506140517 8 293 4.8 9.7 0.00 0.00 0.00 51 1019.1
20260506140017 8 338 3.2 6.4 0.00 0.00 0.00 51 1019.0
20260506135517 7 338 6.4 11.3 0.00 0.00 0.00 51 1019.0
20260506135017 7 338 6.4 11.3 0.00 0.00 0.00 52 1019.1
20260506134517 7 338 8.0 11.3 0.00 0.00 0.00 52 1019.0
20260506134037 7 0 6.4 11.3 0.00 0.00 0.00 53 1018.9
20260506133537 7 0 8.0 12.9 0.00 0.00 0.00 55 1018.8
20260506133017 7 338 9.7 12.9 0.00 0.00 0.00 54 1018.7
20260506132517 7 338 8.0 12.9 0.00 0.00 0.00 56 1018.7
20260506132037 6 338 11.3 14.5 0.00 0.00 0.00 56 1018.8
20260506131517 6 338 11.3 14.5 0.00 0.00 0.00 58 1018.6
20260506131017 6 338 11.3 14.5 0.00 0.00 0.00 59 1018.7
20260506130517 6 338 6.4 11.3 0.00 0.00 0.00 60 1018.7
20260506130017 6 315 6.4 16.1 0.00 0.00 0.00 61 1018.6
20260506125517 6 338 9.7 16.1 0.00 0.00 0.00 62 1018.6
20260506125017 5 338 8.0 12.9 0.00 0.00 0.00 64 1018.6
20260506124517 5 338 8.0 11.3 0.00 0.00 0.00 66 1018.5
20260506124017 5 338 6.4 11.3 0.00 0.00 0.00 68 1018.4
20260506123517 4 338 6.4 8.0 0.00 0.00 0.00 68 1018.3
20260506123017 4 0 6.4 9.7 0.00 0.00 0.00 68 1018.3
20260506122517 3 0 6.4 8.0 0.00 0.00 0.00 68 1018.2
20260506122037 3 0 4.8 8.0 0.00 0.00 0.00 68 1018.1
20260506121537 3 338 4.8 6.4 0.00 0.00 0.00 68 1018.0
20260506121017 3 0 4.8 6.4 0.00 0.00 0.00 68 1017.9
20260506120517 3 0 4.8 6.4 0.00 0.00 0.00 68 1017.8
20260506120017 2 0 4.8 8.0 0.00 0.00 0.00 68 1017.5
20260506115517 2 338 6.4 8.0 0.00 0.00 0.00 67 1017.5
20260506115017 2 338 6.4 8.0 0.00 0.00 0.00 68 1017.4
20260506114517 2 0 3.2 6.4 0.00 0.00 0.00 68 1017.3
20260506114017 2 315 3.2 4.8 0.00 0.00 0.00 67 1017.2
20260506113517 2 315 1.6 3.2 0.00 0.00 0.00 67 1017.2
20260506113017 2 315 1.6 4.8 0.00 0.00 0.00 67 1017.1
20260506112517 2 315 1.6 4.8 0.00 0.00 0.00 67 1017.2
20260506112017 2 315 1.6 4.8 0.00 0.00 0.00 68 1017.2
20260506111517 2 315 1.6 3.2 0.00 0.00 0.00 68 1017.1
20260506111017 2 315 1.6 3.2 0.00 0.00 0.00 68 1017.1
20260506110517 2 315 3.2 4.8 0.00 0.00 0.00 68 1017.1